Terminal Aerodrome Forecast
Issued by NWS Rapid City, SD

Home | Current Version | Previous Version | Graphics & Text | Print | Product List | Glossary On
Versions: 1 2 3 4 5 6 7 8 9 10 11 12 13 14 15 16 17 18 19 20 21 22 23 24
000
FTUS43 KUNR 251919 AAA
TAFRAP
TAF AMD
KRAP 251919Z 2519/2618 01017KT 5SM -SN BR BKN015 OVC030
      TEMPO 2519/2522 2SM -SN SCT007 OVC010
     FM252200 35015KT 6SM -SHSN BR OVC015
     FM260300 34013KT P6SM OVC015
     FM261700 35009KT P6SM SCT025=

USA.gov is the U.S. government's official web portal to all federal, state and local government web resources and services.